Terminal Aerodrome Forecast
Issued by NWS Portland, OR

Home | Current Version | Previous Version | Text Only | Print | Product List | Glossary On
Versions: 1 2 3 4 5 6 7 8 9 10 11 12 13 14 15 16 17 18 19 20 21 22 23 24 25 26 27 28 29
000
FTUS46 KPQR 291918 AAA
TAFEUG
TAF AMD
KEUG 291918Z 2919/3018 21010G18KT P6SM SCT035 BKN060
      TEMPO 2919/2923 -SHRA
     FM300400 19010KT P6SM -RA BKN030 OVC050=

USA.gov is the U.S. government's official web portal to all federal, state and local government web resources and services.